This demonstration page uses our WeatherBlox Daily Observations layout. Learn more.

Left ArrowRight Arrow

Hourly Observations for September 6, 2017

Temp ( °F °C ) Dew Point ( °F °C ) Humidity (%) Winds ( mph kmh ) Pressure ( in mb ) Visibility ( mi km ) Precip ( " mm )
12:51 am 00:51 Clear 78 25.6 42 5.6 28 28 E 8 13 29.9 1012 10 16.0934 0 0
1:51 am 01:51 Clear 77 25 47 8.3 35 35 E 5 7 29.9 1013 10 16.0934 0 0
2:51 am 02:51 Clear 80 26.7 49 9.4 34 34 E 10 17 29.91 1013 10 16.0934 0 0
3:51 am 03:51 Clear 80 26.7 50 10 35 35 E 13 20 29.91 1013 10 16.0934 0 0
4:51 am 04:51 Clear 77 25 51 10.6 40 40 E 9 15 29.93 1014 10 16.0934 0 0
5:51 am 05:51 Clear 74 23.3 51 10.6 45 45 E 7 11 29.94 1014 10 16.0934 0 0
6:51 am 06:51 Sunny 76 24.4 50 10 40 40 ESE 7 11 29.96 1015 10 16.0934 0 0
7:51 am 07:51 Sunny 80 26.7 49 9.4 34 34 ESE 10 17 29.98 1015 10 16.0934 0 0
8:51 am 08:51 Sunny 85 29.4 51 10.6 31 31 ESE 8 13 29.98 1015 10 16.0934 0 0
9:51 am 09:51 Sunny 88 31.1 53 11.7 30 30 SE 10 17 29.98 1015 10 16.0934 0 0
10:51 am 10:51 Sunny 91 32.8 53 11.7 27 27 SE 9 15 29.95 1014 10 16.0934 0 0
11:51 am 11:51 Sunny 92 33.3 52 11.1 26 26 S 13 20 29.93 1014 10 16.0934 0 0
12:51 pm 12:51 Sunny 95 35 49 9.4 21 21 ESE 8 13 29.89 1012 10 16.0934 0 0
1:51 pm 13:51 Sunny 96 35.6 49 9.4 20 20 undefined N/A 29.86 1011 10 16.0934 0 0
2:51 pm 14:51 Sunny 98 36.7 45 7.2 16 16 SE 9 15 29.82 1010 10 16.0934 0 0
3:51 pm 15:51 Sunny 96 35.6 41 5 15 15 VRB 7 11 29.8 1009 10 16.0934 0 0
4:51 pm 16:51 Sunny 96 35.6 43 6.1 16 16 S 7 11 29.79 1009 10 16.0934 0 0
5:51 pm 17:51 Sunny 94 34.4 44 6.7 18 18 S 7 11 29.81 1009 10 16.0934 0 0
6:51 pm 18:51 Clear 89 31.7 42 5.6 19 19 SSE 9 15 29.83 1010 10 16.0934 0 0
7:51 pm 19:51 Clear 88 31.1 41 5 19 19 VRB 7 11 29.85 1011 10 16.0934 0 0
8:51 pm 20:51 Clear 83 28.3 42 5.6 24 24 SE 3 6 29.86 1011 10 16.0934 0 0
9:51 pm 21:51 Clear 76 24.4 43 6.1 31 31 E 7 11 29.88 1012 10 16.0934 0 0
10:51 pm 22:51 Clear 78 25.6 44 6.7 30 30 SE 5 7 29.88 1012 10 16.0934 0 0
11:51 pm 23:51 Clear 76 24.4 45 7.2 33 33 SSE 7 11 29.88 1012 10 16.0934 0 0

Powered by AerisWeather